Regional Weather Roundup
Issued by NWS

Home | Current Version | Previous Version | Graphics & Text | Print | Product List | Glossary On
Versions: 1 2 3 4 5 6 7 8 9 10 11 12 13 14 15 16 17 18 19 20 21 22 23 24 25 26 27 28 29 30 31 32 33 34 35 36 37 38 39 40 41 42 43 44 45 46 47 48 49 50
000
ASUS45 KBOU 291807
RWRCO

WEATHER ROUNDUP FOR COLORADO
NATIONAL WEATHER SERVICE DENVER/BOULDER CO
1200 PM MDT SUN MAR 29 2015

NOTE: "FAIR" INDICATES FEW OR NO CLOUDS BELOW 12000 FEET WITH NO
SIGNIFICANT WEATHER AND/OR OBSTRUCTIONS TO VISIBILITY.

COZ001>005-013-030-031-291900-
...NORTHWEST COLORADO...

CITY           SKY/WX    TMP DP  RH WIND       PRES   REMARKS
CRAIG          SUNNY     56  18  22 W6        30.33F
HAYDEN         SUNNY     52  16  24 NW3       30.34F
MEEKER         SUNNY     58  13  17 S7        30.33F
MOUNT WERNER   NOT AVBL
STEAMBOAT SPGS SUNNY     50  15  25 W5        30.34F
WALDEN         SUNNY     50  12  22 CALM      30.34F
$$

COZ006>008-011-291900-
...WEST CENTRAL VALLEYS...

CITY           SKY/WX    TMP DP  RH WIND       PRES   REMARKS
GRAND JUNCTION SUNNY     67   9  10 NE6G17    30.24F
MONTROSE       SUNNY     63  16  16 SW3       30.30F
EAGLE          SUNNY     57   9  14 CALM      30.33F
RIFLE          SUNNY     62   7  11 VRB3      30.29F
DELTA          SUNNY     68  15  13 W6        30.27F
NUCLA          SUNNY     64  18  16 NW3       30.32S
$$

COZ017>023-064>068-291900-
...SOUTHWEST COLORADO...

CITY           SKY/WX    TMP DP  RH WIND       PRES   REMARKS
DURANGO        SUNNY     63  24  22 S6        30.29F
CORTEZ         SUNNY     70  20  15 VRB5      30.26F
PAGOSA SPRINGS SUNNY     64  13  13 SW10      30.31F
TELLURIDE      SUNNY     56   3  12 NW9       30.41
WOLF CREEK PAS SUNNY     43   9  24 W13G18    30.54F
$$

COZ009-010-012-014-032>034-037-058>063-291900-
...CENTRAL COLORADO...

CITY           SKY/WX    TMP DP  RH WIND       PRES   REMARKS
ASPEN          SUNNY     55  10  16 NW3G17    30.34F
BUENA VISTA    SUNNY     59   2  10 S7        30.31F
COPPER MTN     SUNNY     37   1  22 W24G37    30.46F
BERTHOUD PASS  FAIR      30  23  74 N12G37    30.46S WCI  21
COTTONWOOD PAS SUNNY     52 -15   6 SW12G20   30.39S
GUNNISON       SUNNY     55  21  26 E6        30.36F
KREMMLING      SUNNY     55   0  10 SW8       30.34F
LEADVILLE      SUNNY     43   5  20 W10G21    30.38F
SALIDA         SUNNY     63   7  11 NE5       30.37S
SUNLIGHT       SUNNY     43  10  26 CALM      30.50S
WILKERSON PASS SUNNY     45   5  19 W5        30.47S
$$

COZ069>075-291900-
...SAN LUIS VALLEY/SANGRE DE CRISTO MOUNTAINS...

CITY           SKY/WX    TMP DP  RH WIND       PRES   REMARKS
ALAMOSA        SUNNY     61  20  20 S6        30.31F
LA VETA PASS   SUNNY     43  25  49 N10       30.44S
SAGUACHE       SUNNY     61   9  12 N15G24    30.32S
$$

COZ035-036-038>040-291900-
...NORTHERN COLORADO FRONT RANGE...

CITY           SKY/WX    TMP DP  RH WIND       PRES   REMARKS
DENVER INTL AP SUNNY     55  21  26 VRB5      30.31F
DMNS CITY PARK   N/A     54  21  27 E8G15     30.31F
AURORA         MOSUNNY   53  21  28 E12       30.33F
FRONT RANGE AP SUNNY     54  23  30 N10       30.33F
ERIE MUNI ARPT SUNNY     56  20  24 SE8       30.31F
BOULDER MUN AP SUNNY     55  21  26 SE12G20   30.29F
CENTENNIAL     SUNNY     51  20  29 NE6       30.32F
BROOMFIELD     SUNNY     54  19  26 SE17G24   30.32F
FORT COLLINS   SUNNY     55  21  26 SE6       30.30F
LONGMONT       SUNNY     59  21  23 S10G16    30.31F
$$

COZ041-046-047-076>085-087-088-291900-
...PIKES PEAK/PALMER DIVIDE AND SOUTHERN FOOTHILLS...

CITY           SKY/WX    TMP DP  RH WIND       PRES   REMARKS
COLO. SPRINGS  MOSUNNY   56  19  23 N8        30.33S
A. F. ACADEMY  SUNNY     51  18  27 VRB6      30.32F
ELLICOTT       SUNNY    N/A N/A N/A N21G29    30.31S
FALCON         SUNNY     51  18  27 N14G23    30.35S
FORT CARSON    SUNNY     56  20  25 N8        30.31S
LIMON          SUNNY     54  22  28 N17G26    30.32S
MONUMENT HILL  SUNNY     45  19  36 N6        30.34F
TRINIDAD       SUNNY     59  21  23 NE12      30.35R
$$

COZ042>045-048>051-090-091-291900-
...NORTHEAST COLORADO...

CITY           SKY/WX    TMP DP  RH WIND       PRES   REMARKS
GREELEY ARPT   SUNNY     59  19  21 NW10      30.27F
AKRON          SUNNY     56  23  27 N26G33    30.29F
BURLINGTON     SUNNY     60  22  23 N20G33    30.26S
WRAY           SUNNY     61  25  25 N17G25    30.27S
STERLING       SUNNY     59  27  29 N23G31    30.26F
HOLYOKE        NOT AVBL
FORT MORGAN    SUNNY    N/A N/A N/A N20G30    30.28F
$$

COZ086-089-092>099-291900-
...SOUTHEAST COLORADO...

CITY           SKY/WX    TMP DP  RH WIND       PRES   REMARKS
PUEBLO         SUNNY     58  18  21 VRB6      30.31F
LA JUNTA       SUNNY     64  19  17 N14G25    30.30F
LAMAR          CLOUDY    65  21  18 N22G32    30.26S HAZE
SPRINGFIELD      N/A     63  21  20 N25G33    30.27S
$$



USA.gov is the U.S. government's official web portal to all federal, state and local government web resources and services.